星链-35093 (STARLINK-35093)

导读

STARLINK-35093是美国SpaceX公司星链(Starlink)卫星互联网星座中的一颗卫星,于2025年9月3日由美国发射入轨。星链星座旨在通过近地轨道部署大量卫星,为全球尤其是基础设施匮乏的偏远地区提供高速低延迟宽带互联网服务,该卫星的入轨进一步扩充了星链星座的网络覆盖与服务能力。

Basic Information
目录编号:
65478
目录名称:
STARLINK-35093
国际标识:
2025-195W
轨道中心:
EARTH
卫星名称:
星链-35093
卫星全名:
星链-35093 (STARLINK-35093)
卫星状态:
在轨 (已飞行283 天)
发射日期:
2025-09-03 UTC
国别 :
美国 (US)
星等 :
--
Orbit Information
数据来源 国际轨道数据 AOE轨道数据
星历时间 2026-06-13T14:15:04+0800
11小时前
查看轨道信息
2026-06-11T01:00:00+0800
3天前
查看轨道信息
半长轴 6848.836km 6848.793km
偏心率 0.0001199 0.0001398
轨道倾角 53.157° 53.157°
近地点辐角 98.203° 93.123°
升交点赤经 173.718° 185.601°
平近点角 261.911° 226.346°
近地点 469.877km 469.698km
远地点 471.521km 471.614km
周期 94.012分钟 94.011分钟
每日圈数 15.317139 15.317285
Detailed Information
固有亮度:
5
最大亮度:
2.5
卫星平台:
Starlink V1.0
覆盖范围:
全球
运营商:
太空探索技术公司
运营商所在国:
美国
制造商(研发单位):
太空探索技术公司
制造商所在国:
美国
使用方式:
暂无
Satellite Introduction
Starlink 计划是 SpaceX 推出的全球卫星互联网项目,通过发射低轨道卫星,为全球尤其是偏远地区提供高速、低延迟的互联网服务。自 2019 年起,Starlink 已部署数千颗卫星,旨在缩小全球数字鸿沟,推动互联网普及。该项目还为军事、航空等行业提供通信支持,带来广泛经济效益。
2D Orbit Map
3D Orbit Map
Orbit Altitude Analysis Chart
Orbit Inclination Analysis Chart
Orbit Comprehensive Analysis Chart
View Comprehensive Chart